Wind_Speed
51 49 47 45 43 42 41 39 38 37 36 36 34 32 32 31 30 29 29 30 29 30 30 31 31 32 33 33 33 33 36 35 32 34 33 36 40 40 45 50 49 53 46 48 54
55 53 50 48 47 46 44 43 42 40 39 39 37 36 35 34 33 32 32 32 32 32 33 33 34 35 37 35 37 36 39 35 37 41 39 43 46 49 52 41 34 36 36 33 29
59 56 55 52 50 49 48 46 45 43 43 42 40 39 38 38 38 36 36 35 36 36 37 36 37 37 38 41 39 40 38 36 39 44 47 49 51 53 40 20 30 30 27 25 22
62 60 57 56 54 52 50 49 48 46 45 44 44 43 42 41 42 35 37 37 37 36 37 37 38 39 42 41 43 44 39 41 44 46 53 55 54 33 36 25 29 28 26 24 25
65 62 60 59 57 54 53 51 50 49 47 46 46 45 44 45 42 39 42 41 41 40 40 42 41 42 44 43 42 44 47 47 52 54 49 43 36 33 29 28 26 28 27 25 25
69 66 63 62 59 58 57 54 53 51 50 49 49 48 47 46 44 43 44 42 42 42 42 44 46 49 50 51 46 47 50 48 53 43 36 34 31 34 30 26 26 27 26 24 23
69 70 68 66 64 62 60 57 56 54 53 52 52 50 50 44 44 46 47 49 49 51 53 54 54 57 61 61 57 55 56 47 36 37 35 34 30 31 30 23 24 25 26 24 25
79 72 71 68 65 65 62 61 60 57 56 54 53 52 56 49 50 49 50 51 53 54 55 60 63 68 70 63 58 49 46 38 33 33 31 29 25 27 28 26 27 27 28 27 27
79 72 70 69 67 64 62 63 60 57 57 55 55 54 53 52 51 51 52 52 55 57 62 64 66 61 52 44 48 43 33 32 31 27 25 28 28 27 27 28 27 29 28 28 30
83 74 73 70 68 63 63 63 60 60 60 58 56 60 64 52 54 53 51 53 58 60 59 52 49 41 34 33 33 33 31 32 28 27 27 24 28 29 29 30 31 32 31 31 32
86 82 69 70 69 71 74 65 65 69 70 61 64 61 65 72 70 60 58 59 58 56 54 40 37 32 31 31 30 29 35 34 29 29 28 24 28 29 33 34 38 37 34 36 37
85 81 80 81 74 71 67 70 66 69 69 69 70 70 68 68 67 61 60 60 62 59 49 44 33 31 35 32 32 36 36 36 34 33 32 28 24 28 34 38 39 39 39 38 39
75 81 84 86 89 80 76 73 67 69 75 70 68 71 67 67 69 63 58 56 55 49 46 44 35 38 35 34 36 38 39 39 40 40 39 36 29 30 34 33 37 44 45 42 40
75 73 86 83 84 77 69 71 75 77 82 78 72 66 69 66 63 60 54 56 51 48 45 44 39 40 38 38 39 42 41 43 42 45 44 45 36 34 32 38 43 48 50 47 47
87 78 79 87 71 72 71 77 78 81 82 76 63 58 57 58 55 56 59 52 47 46 47 39 43 41 47 43 46 44 43 45 44 46 48 50 49 31 32 37 52 54 55 55 56
93 91 86 78 86 78 78 78 81 83 83 77 64 59 56 53 54 53 47 48 48 50 50 48 48 49 45 50 49 49 50 50 51 51 52 52 51 36 30 49 59 59 60 63 66
97 94 91 82 79 76 78 75 85 86 81 72 65 60 57 52 49 49 47 48 51 51 53 52 50 54 51 52 52 49 51 52 54 55 53 51 54 52 55 63 67 67 67 66 66
95 91 93 89 84 75 68 82 94 86 78 72 70 66 63 59 53 52 52 53 52 51 52 53 56 54 56 51 51 52 51 55 58 58 56 51 54 62 55 57 70 72 73 71 73
92 86 86 89 81 80 74 84 86 78 75 73 73 68 64 61 61 57 56 52 53 52 51 54 58 61 57 54 52 53 58 59 64 64 64 65 63 59 59 64 72 71 72 74 74
93 94 91 92 80 85 88 87 82 76 71 77 72 70 66 64 64 61 62 60 61 61 57 57 60 61 61 59 59 59 64 66 66 65 64 66 64 66 56 70 72 70 72 74 79
106 90 87 84 83 89 90 85 84 79 78 76 75 74 69 68 68 66 63 65 67 64 61 62 62 64 66 64 64 65 66 65 65 65 63 66 68 65 68 66 69 72 74 80 82
103 111 97 88 94 94 86 86 85 83 79 79 75 75 73 73 69 69 70 69 66 66 67 68 67 67 63 63 64 60 62 65 63 61 62 63 70 63 66 70 73 74 79 82 86
95 97 99 94 100 95 89 88 86 85 83 79 73 76 78 77 79 78 76 75 71 70 71 69 69 61 62 63 61 62 60 59 58 60 62 63 65 63 71 73 76 80 81 82 81
96 104 105 110 101 97 89 88 85 80 83 79 81 78 75 79 80 81 81 78 74 71 69 64 63 60 54 56 58 57 57 58 59 60 57 64 67 66 72 73 77 79 75 64 57
99 104 105 105 99 94 89 87 84 78 80 80 79 78 82 82 83 86 81 78 70 61 60 60 57 54 53 54 53 53 56 57 60 61 63 64 69 71 71 74 69 61 54 52 55
97 104 99 94 94 93 89 87 82 79 75 80 73 75 79 90 90 84 80 71 60 58 56 54 51 50 49 50 50 50 52 53 55 56 63 66 69 61 61 58 47 49 52 53 57
93 88 95 91 96 91 87 88 82 80 72 75 78 80 85 86 78 67 58 55 49 48 48 47 47 48 49 50 49 52 49 53 55 58 60 60 57 50 45 41 45 49 48 53 55
Wind_Direction
233 232 233 231 229 228 227 228 230 233 234 235 235 235 236 237 240 244 247 251 256 261 266 270 273 276 277 278 279 281 283 286 287 279 281 283 281 281 285 287 294 287 287 277 279
232 232 232 232 230 231 231 229 229 232 235 238 237 237 241 243 245 250 255 260 262 262 264 269 273 275 276 278 279 280 281 289 287 286 284 286 289 291 293 295 278 273 284 284 280
234 232 232 232 234 233 234 235 234 232 233 237 238 241 241 246 248 249 254 259 263 265 267 269 271 273 276 278 279 279 282 285 288 291 294 289 288 294 290 292 274 282 289 286 283
234 233 233 233 232 234 234 236 238 237 235 236 238 241 244 247 248 250 254 257 259 262 266 269 271 274 275 277 279 277 280 281 282 287 295 290 287 280 286 283 275 281 277 274 274
233 233 233 233 233 233 234 234 237 238 240 239 241 244 246 247 248 250 253 255 258 261 264 268 270 271 271 272 274 279 280 284 285 284 290 284 279 282 286 277 277 275 278 280 278
233 233 233 234 232 234 235 234 236 239 240 243 245 246 247 249 252 251 254 257 260 263 265 267 268 269 270 271 273 276 284 285 284 284 276 276 280 282 281 277 275 276 277 278 279
233 233 233 233 234 234 235 235 237 238 241 242 244 246 250 250 249 253 256 259 261 262 266 267 268 270 271 274 274 278 282 282 279 271 275 278 280 281 281 284 275 275 278 278 275
229 235 234 235 235 235 235 237 237 238 239 240 242 245 252 248 250 251 255 260 262 265 269 271 275 277 270 270 272 278 276 270 268 270 273 275 277 274 281 282 278 276 275 277 276
229 234 234 233 234 235 236 237 237 239 239 241 242 247 251 249 249 254 258 262 267 272 275 278 276 276 270 265 265 271 262 262 260 269 264 272 278 279 277 276 276 273 272 273 278
235 230 232 232 231 233 234 236 237 238 237 240 244 249 249 250 251 255 260 266 270 274 279 273 272 265 259 263 263 258 258 251 260 264 266 263 272 273 275 278 277 271 270 271 275
231 234 229 232 232 234 231 240 237 242 239 248 251 247 253 254 256 254 255 263 270 275 278 267 260 259 249 245 251 256 254 259 258 262 261 264 266 267 273 278 274 271 271 270 268
230 232 235 232 233 232 232 237 239 242 246 245 244 247 250 252 253 254 258 265 272 275 264 256 253 255 249 249 248 250 255 255 258 259 265 275 275 276 278 271 270 272 273 268 271
227 230 232 233 236 231 234 234 239 239 245 242 245 250 245 251 255 259 259 265 264 258 250 251 248 249 253 256 257 258 257 257 258 262 270 280 279 290 277 280 273 269 267 270 276
229 224 228 230 237 241 241 233 239 243 247 253 257 253 250 253 256 256 261 265 258 246 245 249 246 253 251 254 259 259 261 262 264 268 273 276 282 276 289 282 282 279 277 275 275
221 217 215 227 240 241 242 238 239 243 245 254 254 251 248 252 260 256 260 253 252 245 244 253 254 251 257 259 259 263 263 263 269 270 271 272 274 289 280 281 277 283 285 284 282
224 222 226 227 229 231 239 241 241 239 240 251 253 254 254 253 257 256 249 248 246 247 248 250 255 256 256 260 263 263 265 267 267 270 270 274 276 275 278 278 286 287 285 282 280
223 228 231 231 229 235 229 235 234 232 239 247 252 255 257 252 251 250 251 247 250 252 256 258 254 260 260 259 260 262 268 268 269 269 271 275 276 282 281 281 285 286 286 287 289
223 227 233 231 233 230 226 232 233 235 239 243 244 248 252 249 248 249 248 247 246 249 254 256 255 257 262 260 262 265 267 267 269 271 273 271 275 287 280 280 287 285 286 291 289
220 226 231 228 226 227 229 232 233 240 238 238 243 239 244 247 247 248 246 249 246 249 252 257 256 260 264 264 264 267 269 270 270 272 271 275 276 282 282 277 281 288 293 291 289
215 218 226 229 224 224 232 232 233 236 239 238 242 242 243 247 249 252 253 254 251 252 255 261 261 264 265 263 264 268 270 273 273 273 273 277 280 283 271 280 287 289 289 290 289
214 217 222 223 221 221 229 231 235 236 237 240 242 242 242 246 249 254 255 256 255 256 259 261 263 264 263 264 268 270 272 272 270 272 274 277 278 281 283 287 286 288 288 287 290
215 217 219 222 223 223 226 231 232 233 237 239 241 239 241 249 253 256 256 255 260 259 262 263 265 264 265 266 268 271 267 269 271 273 273 274 282 287 286 287 289 288 287 289 288
209 214 220 224 224 223 225 228 232 232 235 239 241 239 242 249 250 252 255 258 258 262 262 265 265 261 261 265 265 266 268 269 270 272 275 280 286 287 287 288 289 289 289 288 289
206 205 212 218 221 222 225 228 228 229 234 240 241 242 245 249 250 253 254 258 258 263 260 254 255 260 259 259 263 263 265 267 269 273 279 283 286 286 287 290 291 290 289 290 292
209 209 214 217 220 222 222 227 227 230 234 237 240 244 247 250 251 252 254 255 254 250 251 252 255 254 252 255 258 261 265 270 275 280 285 287 289 292 294 291 290 288 288 295 297
211 209 212 218 224 223 224 227 230 232 238 239 241 244 248 248 250 252 252 246 248 249 250 251 248 249 250 253 257 263 269 277 282 285 286 288 290 291 286 285 289 296 300 300 297
208 208 214 221 222 225 229 232 232 231 245 245 244 244 244 244 242 240 239 241 243 243 241 240 243 246 251 256 263 268 277 280 285 286 286 286 289 282 281 291 299 298 298 300 300
Height
5790 5794 5799 5803 5807 5811 5814 5818 5821 5824 5827 5829 5832 5835 5837 5838 5841 5843 5844 5846 5847 5849 5850 5852 5852 5853 5853 5854 5855 5855 5854 5855 5857 5854 5855 5854 5851 5852 5849 5846 5848 5836 5836 5832 5828
5779 5784 5789 5794 5798 5803 5806 5809 5812 5816 5819 5822 5825 5828 5830 5831 5834 5836 5839 5840 5841 5841 5843 5844 5845 5846 5846 5847 5847 5847 5846 5849 5847 5845 5847 5844 5842 5841 5840 5840 5833 5828 5828 5826 5824
5768 5773 5778 5784 5789 5793 5798 5801 5805 5807 5810 5814 5816 5820 5822 5824 5826 5829 5830 5832 5833 5834 5836 5836 5837 5838 5839 5837 5839 5838 5840 5841 5841 5839 5837 5835 5833 5832 5829 5833 5825 5825 5824 5823 5822
5757 5762 5768 5773 5778 5783 5787 5792 5796 5799 5802 5804 5807 5810 5813 5815 5817 5822 5822 5824 5825 5826 5828 5829 5830 5830 5831 5832 5831 5830 5832 5830 5832 5830 5829 5826 5824 5825 5824 5825 5820 5819 5817 5817 5816
5744 5750 5755 5761 5766 5772 5777 5781 5786 5790 5794 5796 5799 5801 5804 5807 5809 5812 5813 5815 5817 5819 5820 5821 5822 5821 5822 5822 5824 5823 5823 5824 5821 5822 5821 5817 5817 5818 5820 5816 5815 5813 5812 5812 5811
5730 5736 5743 5750 5754 5760 5766 5769 5774 5779 5783 5786 5789 5791 5794 5799 5801 5803 5805 5807 5809 5811 5812 5813 5813 5812 5813 5811 5816 5815 5815 5815 5814 5813 5811 5810 5812 5811 5811 5810 5809 5807 5806 5806 5806
5715 5723 5730 5736 5742 5747 5753 5758 5763 5768 5772 5775 5778 5780 5783 5793 5792 5794 5796 5798 5800 5802 5803 5802 5802 5803 5802 5802 5805 5806 5806 5806 5806 5805 5806 5805 5807 5804 5803 5804 5803 5802 5800 5800 5799
5700 5710 5717 5723 5729 5735 5741 5745 5750 5756 5760 5764 5767 5768 5774 5781 5780 5785 5786 5788 5789 5792 5792 5790 5791 5790 5789 5792 5793 5795 5796 5797 5798 5799 5799 5798 5800 5797 5796 5797 5796 5796 5795 5795 5793
5685 5696 5703 5710 5716 5722 5727 5732 5738 5744 5749 5752 5756 5758 5765 5771 5773 5774 5776 5778 5779 5781 5780 5780 5779 5776 5775 5780 5782 5786 5788 5789 5790 5791 5793 5790 5791 5790 5790 5789 5790 5788 5789 5788 5788
5668 5680 5689 5695 5701 5708 5715 5720 5725 5731 5735 5739 5743 5749 5754 5759 5762 5763 5765 5767 5768 5769 5769 5768 5767 5765 5766 5772 5775 5777 5779 5781 5783 5785 5784 5785 5784 5784 5782 5782 5782 5780 5781 5782 5781
5654 5664 5674 5681 5686 5693 5700 5709 5715 5718 5722 5732 5736 5740 5739 5742 5748 5752 5754 5756 5758 5759 5761 5758 5758 5759 5762 5763 5768 5770 5772 5773 5775 5776 5776 5778 5778 5778 5777 5775 5771 5771 5774 5772 5771
5639 5649 5658 5665 5672 5682 5688 5696 5706 5706 5710 5715 5719 5722 5726 5729 5733 5739 5743 5747 5746 5749 5749 5749 5753 5755 5754 5756 5759 5762 5764 5765 5766 5768 5767 5769 5771 5771 5769 5765 5765 5763 5761 5760 5761
5625 5634 5643 5648 5657 5664 5678 5690 5692 5689 5688 5696 5706 5707 5712 5718 5720 5725 5730 5735 5734 5736 5737 5740 5746 5744 5747 5749 5751 5754 5755 5756 5757 5758 5760 5760 5760 5762 5757 5758 5757 5753 5753 5753 5753
5611 5618 5629 5634 5641 5656 5665 5675 5672 5675 5670 5680 5687 5694 5699 5705 5707 5713 5717 5720 5721 5726 5727 5729 5734 5735 5739 5740 5743 5744 5746 5746 5748 5750 5752 5752 5748 5752 5755 5748 5742 5738 5739 5743 5742
5594 5603 5609 5620 5634 5641 5655 5660 5660 5658 5648 5665 5673 5681 5686 5690 5700 5700 5704 5705 5710 5715 5715 5725 5723 5728 5726 5734 5733 5735 5736 5736 5738 5739 5740 5742 5741 5743 5739 5743 5729 5729 5727 5725 5724
5576 5588 5597 5606 5615 5630 5638 5644 5641 5636 5625 5649 5659 5665 5671 5680 5686 5686 5692 5696 5700 5702 5706 5711 5713 5715 5723 5719 5721 5723 5724 5726 5727 5727 5727 5730 5731 5738 5729 5724 5719 5718 5717 5714 5712
5559 5568 5579 5591 5604 5614 5622 5628 5615 5604 5623 5640 5645 5650 5658 5667 5672 5676 5680 5685 5688 5692 5695 5701 5705 5702 5707 5709 5709 5712 5713 5713 5713 5711 5716 5717 5715 5724 5715 5701 5704 5704 5701 5699 5697
5543 5552 5560 5575 5581 5596 5605 5601 5579 5599 5615 5628 5633 5640 5646 5652 5659 5663 5667 5671 5677 5682 5684 5686 5687 5692 5694 5698 5698 5698 5700 5700 5699 5700 5701 5703 5697 5709 5697 5681 5686 5684 5685 5683 5679
5524 5533 5539 5553 5562 5577 5583 5565 5570 5596 5610 5615 5619 5627 5633 5638 5645 5650 5656 5663 5667 5670 5674 5673 5673 5677 5682 5685 5687 5684 5683 5684 5681 5684 5681 5689 5686 5691 5682 5671 5670 5670 5668 5663 5661
5502 5514 5521 5532 5548 5558 5553 5551 5569 5583 5594 5600 5606 5615 5623 5628 5633 5638 5643 5650 5653 5656 5661 5662 5659 5664 5667 5670 5671 5670 5668 5668 5666 5666 5663 5672 5673 5670 5659 5650 5655 5653 5646 5644 5641
5480 5487 5499 5514 5530 5527 5524 5543 5559 5568 5578 5585 5596 5603 5612 5615 5619 5625 5630 5635 5638 5644 5648 5649 5647 5649 5653 5655 5655 5653 5652 5652 5650 5650 5647 5649 5658 5652 5644 5642 5635 5634 5632 5626 5622
5455 5458 5482 5494 5500 5503 5518 5530 5543 5552 5560 5569 5583 5588 5598 5602 5608 5611 5613 5620 5625 5631 5630 5632 5631 5631 5636 5635 5638 5639 5634 5633 5634 5636 5633 5630 5642 5636 5626 5624 5619 5615 5606 5600 5596
5426 5447 5463 5475 5476 5489 5507 5515 5527 5538 5547 5556 5567 5577 5588 5588 5590 5592 5598 5605 5611 5614 5615 5618 5616 5617 5615 5620 5623 5621 5620 5619 5617 5617 5615 5612 5622 5621 5607 5605 5601 5591 5587 5576 5567
5409 5422 5432 5443 5461 5481 5495 5502 5516 5525 5534 5545 5554 5564 5572 5572 5576 5579 5584 5588 5594 5599 5602 5602 5603 5603 5602 5603 5609 5608 5608 5605 5605 5602 5605 5600 5598 5608 5597 5589 5580 5573 5563 5557 5552
5389 5397 5417 5434 5454 5475 5485 5493 5506 5515 5522 5532 5539 5549 5556 5557 5559 5563 5571 5575 5578 5583 5585 5588 5591 5589 5588 5588 5593 5595 5593 5590 5588 5589 5584 5588 5577 5577 5576 5569 5562 5554 5548 5546 5541
5380 5394 5422 5445 5453 5464 5469 5482 5496 5503 5510 5520 5528 5535 5538 5540 5548 5553 5558 5561 5565 5569 5571 5574 5575 5576 5578 5577 5580 5584 5582 5579 5579 5578 5570 5569 5567 5561 5556 5552 5546 5542 5536 5532 5524
5377 5406 5425 5437 5444 5453 5463 5475 5484 5493 5501 5509 5513 5518 5520 5526 5533 5538 5542 5546 5552 5555 5559 5563 5563 5566 5567 5565 5567 5570 5575 5566 5566 5562 5557 5552 5551 5545 5541 5540 5534 5528 5525 5518 5511